This demonstration page uses our WeatherBlox Daily Observations layout. Learn more.

Left ArrowRight Arrow

39.51506, -84.39828

Hourly Observations for May 19, 2018

Temp ( °F °C ) Dew Point ( °F °C ) Humidity (%) Winds ( mph kmh ) Pressure ( in mb ) Visibility ( mi km ) Precip ( " mm )
12:15 am 00:15 Mostly Cloudy 69 20.5 67 19.2 92 92 E 7 11 29.88 1012 10 16 N/A
12:35 am 00:35 Mostly Cloudy 69 20.6 67 19.2 92 92 ESE 7 11 29.88 1012 10 16 N/A
12:55 am 00:55 Partly Cloudy 69 20.8 67 19.3 91 91 ESE 9 15 29.85 1011 10 16 N/A
1:15 am 01:15 Clear 70 20.9 67 19.3 91 91 SE 7 11 29.85 1011 10 16 N/A
1:35 am 01:35 Mostly Cloudy 70 21 67 19.4 91 91 SSE 3 6 29.85 1011 10 16 N/A
1:55 am 01:55 Mostly Cloudy 70 21 67 19.3 90 90 SE 6 9 29.85 1011 10 16 N/A
2:15 am 02:15 Partly Cloudy 70 20.9 67 19.3 91 91 SSE 10 17 29.88 1012 10 16 N/A
2:35 am 02:35 Partly Cloudy 69 20.7 67 19.3 92 92 SSE 5 7 29.88 1012 10 16 N/A
2:55 am 02:55 Mostly Cloudy 69 20.8 66 19.1 90 90 SSE 3 6 29.88 1012 10 16 N/A
3:15 am 03:15 Cloudy 69 20.5 66 19 91 91 N N/A 29.85 1011 10 16 N/A
3:35 am 03:35 Cloudy 69 20.5 66 18.9 91 91 SE 3 6 29.88 1012 10 16 N/A
3:55 am 03:55 Cloudy 69 20.6 66 18.7 89 89 S 3 6 29.88 1012 10 16 N/A
4:15 am 04:15 Mostly Cloudy 68 20.2 65 18.5 90 90 S 5 7 29.88 1012 10 16 N/A
4:35 am 04:35 Cloudy 68 20.1 66 18.7 92 92 SSE 3 6 29.85 1011 10 16 N/A
4:55 am 04:55 Cloudy 68 19.8 65 18.6 93 93 N N/A 29.88 1012 10 16 N/A
5:15 am 05:15 Mostly Cloudy 67 19.5 65 18.5 94 94 N N/A 29.88 1012 10 16 N/A
5:35 am 05:35 Mostly Cloudy 67 19.2 66 18.7 97 97 N N/A 29.88 1012 10 16 N/A
5:55 am 05:55 Partly Cloudy 67 19.7 66 18.7 94 94 S 3 6 29.88 1012 10 16 N/A
6:15 am 06:15 Partly Cloudy 68 19.8 65 18.6 93 93 S 3 6 29.88 1012 10 16 N/A
6:35 am 06:35 Mostly Cloudy 68 19.9 65 18.5 92 92 S 5 7 29.88 1012 10 16 N/A
6:55 am 06:55 Cloudy 67 19.7 65 18.4 92 92 S 6 9 29.88 1012 10 16 N/A
7:15 am 07:15 Cloudy 68 19.9 65 18.4 91 91 S 6 9 29.88 1012 10 16 N/A
7:35 am 07:35 Cloudy 68 20 65 18.4 91 91 S 8 13 29.91 1013 10 16 N/A
7:55 am 07:55 Mostly Cloudy 68 20.1 65 18.5 91 91 S 7 11 29.91 1013 10 16 N/A
8:15 am 08:15 Cloudy 69 20.4 65 18.6 89 89 S 9 15 29.91 1013 10 16 N/A
8:35 am 08:35 Cloudy 69 20.3 65 18.6 90 90 S 7 11 29.91 1013 10 16 N/A
8:55 am 08:55 Cloudy 69 20.3 66 18.8 91 91 S 8 13 29.91 1013 10 16 N/A
9:15 am 09:15 Cloudy 69 20.4 66 18.8 91 91 SSW 8 13 29.91 1013 10 16 N/A
9:35 am 09:35 Cloudy 69 20.3 66 18.7 91 91 S 9 15 29.91 1013 10 16 N/A
9:55 am 09:55 Cloudy with Light Rain 68 20.2 66 18.9 92 92 S 7 11 29.91 1013 10 16 N/A
10:15 am 10:15 Cloudy with Light Rain 68 19.9 66 19 95 95 S 7 11 29.91 1013 4 6 0.03 0.76
10:35 am 10:35 Cloudy with Light Rain 68 20 67 19.2 95 95 S 6 9 29.91 1013 5 8 0.03 0.76
10:55 am 10:55 Cloudy 69 20.6 67 19.6 94 94 SSW 8 13 29.91 1013 10 16 0.03 0.76
11:15 am 11:15 Cloudy 70 21.3 67 19.7 91 91 S 13 20 29.91 1013 10 16 N/A
11:35 am 11:35 Cloudy 71 21.5 68 20 91 91 SSW 9 15 29.91 1013 7 11 N/A
11:55 am 11:55 Cloudy 73 22.6 69 20.3 87 87 SSW 9 15 29.91 1013 10 16 N/A
12:15 pm 12:15 Cloudy 72 22.3 67 19.7 85 85 SSW 12 19 29.91 1013 10 16 N/A
12:35 pm 12:35 Cloudy 74 23.5 70 20.9 85 85 SSW 9 15 29.88 1012 10 16 N/A
12:55 pm 12:55 Cloudy 72 22.4 67 19.7 85 85 SSW 10 17 29.88 1012 7 11 N/A
1:15 pm 13:15 Cloudy 73 23 67 19.7 82 82 SW 10 17 29.88 1012 10 16 N/A
1:35 pm 13:35 Partly Cloudy 76 24.5 69 20.7 79 79 SSW 12 19 29.88 1012 10 16 N/A
1:55 pm 13:55 Mostly Cloudy 75 24.1 69 20.5 80 80 S 12 19 29.88 1012 10 16 N/A
2:15 pm 14:15 Mostly Cloudy 75 24.1 68 19.9 77 77 SSW 15 24 29.88 1012 10 16 N/A
2:35 pm 14:35 Mostly Cloudy with Mist and Fog 72 22.4 69 20.7 90 90 SW 8 13 29.88 1012 5 8 0.07 1.78
2:55 pm 14:55 Sunny with Nearby Thunderstorms 75 23.7 70 21.3 86 86 S 9 15 29.88 1012 10 16 0.07 1.78
3:15 pm 15:15 Sunny 76 24.3 70 21.3 83 83 SSW 9 15 29.88 1012 10 16 N/A
3:35 pm 15:35 Partly Cloudy 77 24.8 69 20.4 77 77 S 12 19 29.88 1012 10 16 N/A
3:55 pm 15:55 Partly Cloudy 77 24.8 69 20.5 77 77 SSW 10 17 29.88 1012 10 16 N/A
4:15 pm 16:15 Mostly Cloudy 77 24.8 68 19.9 74 74 SSW 14 22 29.88 1012 10 16 N/A
4:35 pm 16:35 Partly Cloudy 80 26.7 68 20.2 68 68 WSW 13 20 29.83 1010 10 16 N/A
4:55 pm 16:55 Cloudy with Light Rain 74 23.3 67 19.4 79 79 WSW 21 33 29.88 1012 10 16 0.01 0.25
5:15 pm 17:15 Partly Cloudy 73 22.8 65 18.2 75 75 WSW 12 19 29.88 1012 10 16 N/A
5:35 pm 17:35 Sunny 73 23 66 19.1 79 79 SW 9 15 29.88 1012 10 16 N/A
5:55 pm 17:55 Sunny 74 23.6 66 18.9 75 75 WSW 10 17 29.88 1012 10 16 N/A
6:15 pm 18:15 Sunny 74 23.5 66 19 76 76 SW 12 19 29.88 1012 10 16 N/A
6:35 pm 18:35 Sunny 75 24.1 67 19.2 74 74 WSW 13 20 29.88 1012 10 16 N/A
6:55 pm 18:55 Sunny 75 23.9 66 18.9 74 74 WSW 14 22 29.88 1012 10 16 N/A
7:15 pm 19:15 Sunny 75 23.7 67 19.3 76 76 SW 9 15 29.88 1012 10 16 N/A
7:35 pm 19:35 Sunny 74 23.2 67 19.5 80 80 SW 9 15 29.88 1012 10 16 N/A
7:55 pm 19:55 Sunny 73 23 67 19.6 81 81 SW 8 13 29.88 1012 10 16 N/A
8:15 pm 20:15 Sunny 73 22.7 67 19.7 83 83 SW 5 7 29.91 1013 10 16 N/A
8:35 pm 20:35 Sunny 71 21.9 67 19.6 87 87 SW 7 11 29.91 1013 10 16 N/A
8:55 pm 20:55 Clear 70 21.3 67 19.4 89 89 WSW 5 7 29.91 1013 10 16 N/A
9:15 pm 21:15 Clear 69 20.8 67 19.2 91 91 SW 7 11 29.94 1014 10 16 N/A
9:35 pm 21:35 Clear 69 20.5 66 19.1 92 92 SW 6 9 29.94 1014 10 16 N/A
9:55 pm 21:55 Clear 69 20.6 67 19.2 92 92 SSW 5 7 29.94 1014 10 16 N/A
10:15 pm 22:15 Clear 69 20.3 67 19.2 93 93 WSW 5 7 29.94 1014 10 16 N/A
10:35 pm 22:35 Clear 67 19.5 66 18.7 95 95 SW 3 6 29.94 1014 7 11 N/A
10:55 pm 22:55 Clear 67 19.4 66 18.9 97 97 N N/A 29.97 1015 7 11 N/A
11:15 pm 23:15 Clear 67 19.2 66 18.7 97 97 N N/A 29.97 1015 7 11 N/A
11:35 pm 23:35 Clear with Mist and Fog 65 18.3 64 18 98 98 SW 3 6 29.97 1015 5 8 N/A
11:55 pm 23:55 Clear with Mist and Fog 65 18.1 64 17.9 99 99 N N/A 29.97 1015 2 3 N/A

Powered by AerisWeather